Home > Weather > Lakeland > Past weeks

Flag for U.S.A. Weather for the Past 2 Weeks in Lakeland, Florida, U.S.A.

Now
57 °F

Light rain. More clouds than sun.


Feels Like: 56 °F
Forecast: 47 / 63 °F
Wind: 6 mph from Northeast

Location: Lakeland Regional

Current Time: Feb 6, 2016 at 3:42:33 PM

Latest Report: Feb 6, 2016 at 2:50 PM


Visibility: 7 mi

Pressure: 30.09 "Hg

Humidity: 94%

Dew point: 55 °F

Location of LakelandLocation

Historic Weather in Lakeland — Graph

°F

Lakeland Temperature Yesterday

Maximum temperature yesterday: 61 °F (at 2:50 PM)
Minimum temperature yesterday: 45 °F (at 6:50 AM)
Average temperature yesterday: 52 °F

High & Low Weather Summary for the Past Weeks

 TemperatureHumidityPressure
High82 °F (Feb 2, 3:45 PM)100% (Jan 25, 4:35 AM)30.32 "Hg (Jan 25, 4:35 AM)
Low34 °F (Jan 24, 6:50 AM)27% (Feb 5, 2:50 PM)29.73 "Hg (Jan 22, 2:50 PM)
Average59 °F82%30.07 "Hg
* Reported Jan 22 1:55 PM — Feb 6 1:50 PM, Lakeland, Weather by CustomWeather, © 2016

Note: Actual official high and low records may vary slightly from our data, if they occured in-between our weather recording intervals... More about our weather records

Advertising

Lakeland Weather History for the Previous 24 Hours

 ConditionsComfort  
Time TempWeatherWind HumidityBarometerVisibility
1:50 PM
Sat, Feb 6
57 °FRain. More clouds than sun.6 mph94%30.12 "Hg3 mi
12:50 PM59 °FLight rain. More clouds than sun.6 mph88%30.15 "Hg10 mi
11:50 AM61 °FLight rain. Mostly cloudy.6 mph77%30.19 "Hg10 mi
10:45 AM59 °FMostly cloudy.8 mph72%30.19 "Hg10 mi
9:45 AM57 °FPartly sunny.6 mph72%30.20 "Hg10 mi
8:50 AM52 °FPartly sunny.7 mph82%30.20 "Hg10 mi
7:50 AM48 °FScattered clouds.7 mph87%30.19 "Hg10 mi
6:45 AM48 °FPassing clouds.6 mph82%30.18 "Hg10 mi
5:55 AM46 °FClear.6 mph87%30.18 "Hg10 mi
4:35 AM46 °FPassing clouds.6 mph82%30.17 "Hg10 mi
4:15 AM46 °FPassing clouds.7 mph82%30.18 "Hg10 mi
3:55 AM46 °FPassing clouds.6 mph82%30.18 "Hg10 mi
3:15 AM46 °FPassing clouds.6 mph82%30.18 "Hg10 mi
2:55 AM45 °FPassing clouds.7 mph87%30.19 "Hg10 mi
2:35 AM45 °FPassing clouds.8 mph87%30.20 "Hg10 mi
2:15 AM45 °FPassing clouds.8 mph87%30.20 "Hg10 mi
1:55 AM45 °FPassing clouds.7 mph87%30.21 "Hg10 mi
1:15 AM45 °FClear.7 mph87%30.21 "Hg10 mi
12:55 AM45 °FClear.6 mph87%30.22 "Hg10 mi
12:35 AM45 °FClear.6 mph87%30.24 "Hg10 mi
12:15 AM46 °FClear.7 mph82%30.25 "Hg10 mi
11:55 PM
Fri, Feb 5
46 °FClear.8 mph82%30.26 "Hg10 mi
11:15 PM46 °FClear.7 mph82%30.26 "Hg10 mi
10:55 PM46 °FClear.7 mph76%30.27 "Hg10 mi
10:35 PM46 °FClear.7 mph76%30.27 "Hg10 mi
10:15 PM48 °FClear.9 mph71%30.27 "Hg10 mi
9:55 PM48 °FClear.7 mph66%30.27 "Hg10 mi
8:50 PM52 °FClear.N/A62%30.27 "Hg10 mi
7:50 PM54 °FClear.8 mph51%30.27 "Hg10 mi
6:50 PM55 °FClear.13 mph41%30.25 "Hg10 mi
5:50 PM57 °FSunny.12 mph36%30.23 "Hg10 mi
4:50 PM61 °FSunny.13 mph29%30.21 "Hg10 mi
3:50 PM61 °FSunny.13 mph27%30.21 "Hg10 mi
Weather by CustomWeather, © 2016

See weather overviewHow to use our weather pages